Ludington, MI

7:26 PM EDT on October 17, 2019 (GMT -0400)
Mason County

Weather History for KLDM - May, 2019

Change the Weather History Date:

Wednesday, May 22, 2019

  Actual Average Record
Temperature  
Mean Temperature 62 °F -  
Max Temperature 77 °F 70 °F 85 °F (1991)
Min Temperature 48 °F 44 °F 24 °F (2003)
Degree Days  
Heating Degree Days 2    
Growing Degree Days 12 (Base 50)    
Moisture  
Dew Point 48 °F    
Average Humidity 62    
Maximum Humidity 92    
Minimum Humidity 37    
Precipitation  
Precipitation 0.19 in - - ()
Sea Level Pressure  
Sea Level Pressure 29.89 in    
Wind  
Wind Speed 14 mph (SE)    
Max Wind Speed 24 mph    
Max Gust Speed 39 mph    
Visibility 10 miles    
Events Rain    
Averages and records for this station are not official NWS values.
T = Trace of Precipitation, MM = Missing Value Source: NWS Daily Summary

Daily Weather History Graph

Daily Weather History Graph

Search for Another Location

Airport or City:

Astronomy

May. 22, 2019 Rise Set
Actual Time 6:13 AM EDT 9:12 PM EDT
Civil Twilight 5:38 AM EDT 9:46 PM EDT
Nautical Twilight 4:55 AM EDT 10:30 PM EDT
Astronomical Twilight 4:03 AM EDT 11:22 PM EDT
Moon 12:07 AM EDT (5/22) 9:19 AM EDT (5/22)
Length of Visible Light 16h 07m
Length of Day
14h 59m
Waning Gibbous, 85% of the Moon is Illuminated
May 22
Waning Gibbous
May 26
Last Quarter
Jun 3
New
Jun 10
First Quarter
Jun 17
Full

Hourly Weather History & Observations

Time (EDT) Temp. Dew Point Humidity Pressure Visibility Wind Dir Wind Speed Gust Speed Precip Events Conditions
12:15 AM 57.4 °F 32.5 °F 39% 30.04 in 10.0 mi East 12.7 mph 20.7 mph N/A   Clear
12:35 AM 57.2 °F 32.0 °F 38% 30.02 in 10.0 mi East 12.7 mph 21.9 mph N/A   Scattered Clouds
12:55 AM 56.5 °F 32.4 °F 40% 30.02 in 10.0 mi East 13.8 mph 19.6 mph N/A   Scattered Clouds
1:15 AM 56.7 °F 32.5 °F 40% 30.02 in 10.0 mi ESE 12.7 mph 19.6 mph N/A   Scattered Clouds
1:16 AM 56.5 °F 32.5 °F 40% 30.02 in 10.0 mi ESE 12.7 mph 19.6 mph N/A   Scattered Clouds
1:35 AM 56.5 °F 32.9 °F 41% 30.01 in 10.0 mi East 12.7 mph 17.3 mph N/A   Mostly Cloudy
1:36 AM 56.5 °F 32.9 °F 41% 30.00 in 10.0 mi ESE 12.7 mph 17.3 mph N/A   Mostly Cloudy
1:55 AM 56.3 °F 32.2 °F 40% 29.99 in 10.0 mi East 16.1 mph 20.7 mph N/A   Mostly Cloudy
2:15 AM 54.3 °F 34.3 °F 47% 29.97 in 10.0 mi East 17.3 mph 23.0 mph N/A Rain Light Rain
2:35 AM 55.2 °F 33.6 °F 44% 29.99 in 10.0 mi ESE 13.8 mph 24.2 mph N/A   Overcast
2:36 AM 55.0 °F 34.2 °F 45% 29.99 in 10.0 mi ESE 13.8 mph 19.6 mph N/A Rain Light Rain
2:55 AM 52.5 °F 37.2 °F 56% 29.99 in 10.0 mi ESE 12.7 mph 17.3 mph N/A   Overcast
2:56 AM 52.9 °F 37.0 °F 55% 29.99 in 10.0 mi ESE 11.5 mph 17.3 mph N/A   Overcast
3:15 AM 52.0 °F 37.9 °F 59% 30.00 in 10.0 mi ESE 12.7 mph 17.3 mph N/A Rain Light Rain
3:35 AM 50.7 °F 39.2 °F 65% 29.97 in 10.0 mi East 15.0 mph 20.7 mph 0.01 in Rain Light Rain
3:55 AM 49.8 °F 39.9 °F 69% 29.95 in 10.0 mi East 15.0 mph 21.9 mph 0.01 in Rain Light Rain
4:15 AM 50.5 °F 39.6 °F 66% 29.94 in 10.0 mi East 18.4 mph 25.3 mph N/A   Mostly Cloudy
4:16 AM 50.5 °F 39.4 °F 66% 29.94 in 10.0 mi East 18.4 mph 25.3 mph N/A   Mostly Cloudy
4:35 AM 50.9 °F 39.9 °F 66% 29.93 in 10.0 mi ESE 18.4 mph 27.6 mph N/A   Drizzle
4:36 AM 50.9 °F 39.9 °F 66% 29.94 in 10.0 mi ESE 19.6 mph 27.6 mph N/A   Drizzle
4:55 AM 50.2 °F 40.8 °F 70% 30.03 in 10.0 mi WSW 8.1 mph 20.7 mph N/A Rain Light Rain
5:15 AM 49.3 °F 43.2 °F 79% 30.01 in 4.0 mi SSE 4.6 mph - 0.05 in Rain Rain
5:35 AM 48.6 °F 44.6 °F 86% 30.00 in 10.0 mi East 6.9 mph - 0.07 in Rain Light Rain
5:55 AM 48.4 °F 44.4 °F 86% 29.97 in 5.0 mi East 8.1 mph - 0.11 in Rain Light Rain
5:56 AM 48.4 °F 44.4 °F 86% 29.97 in 5.0 mi East 8.1 mph - 0.11 in   Overcast
6:16 AM 48.2 °F 44.8 °F 88% 29.96 in 10.0 mi East 9.2 mph - 0.01 in Rain Light Rain
6:35 AM 48.2 °F 44.8 °F 88% 29.96 in 10.0 mi ENE 6.9 mph - 0.02 in Rain Light Rain
6:36 AM 48.2 °F 44.8 °F 88% 29.96 in 10.0 mi East 5.8 mph - 0.02 in Rain Light Rain
6:55 AM 48.4 °F 45.5 °F 90% 29.97 in 7.0 mi East 8.1 mph - 0.04 in Rain Light Rain
7:15 AM 48.2 °F 45.9 °F 92% 29.90 in 7.0 mi East 19.6 mph - 0.01 in Rain Light Rain
7:35 AM 48.6 °F 45.7 °F 90% 29.87 in 7.0 mi ESE 19.6 mph 35.7 mph 0.03 in Rain Light Rain
7:36 AM 48.6 °F 45.7 °F 90% 29.88 in 7.0 mi ESE 20.7 mph 35.7 mph 0.03 in Rain Light Rain
7:55 AM 49.5 °F 45.5 °F 86% 29.87 in 10.0 mi ESE 23.0 mph 33.4 mph 0.03 in Rain Light Rain
7:56 AM 49.5 °F 45.3 °F 86% 29.87 in 10.0 mi ESE 21.9 mph 33.4 mph 0.03 in Rain Light Rain
8:15 AM 50.5 °F 45.1 °F 82% 29.91 in 10.0 mi SE 16.1 mph 32.2 mph N/A   Overcast
8:35 AM 51.1 °F 45.7 °F 82% 29.93 in 10.0 mi SSE 12.7 mph 26.5 mph N/A   Overcast
8:55 AM 51.8 °F 45.5 °F 79% 29.94 in 10.0 mi SE 12.7 mph 18.4 mph N/A   Overcast
9:15 AM 51.8 °F 45.5 °F 79% 29.93 in 10.0 mi ESE 13.8 mph 21.9 mph N/A   Overcast
9:16 AM 51.8 °F 45.7 °F 80% 29.93 in 10.0 mi ESE 15.0 mph 21.9 mph N/A   Overcast
9:35 AM 52.7 °F 46.4 °F 79% 29.93 in 10.0 mi SE 12.7 mph 21.9 mph N/A   Overcast
9:36 AM 52.7 °F 46.4 °F 79% 29.93 in 10.0 mi SE 11.5 mph 21.9 mph N/A   Overcast
9:55 AM 53.4 °F 46.4 °F 77% 29.93 in 10.0 mi SE 15.0 mph 20.7 mph N/A   Overcast
9:56 AM 53.4 °F 46.4 °F 77% 29.93 in 10.0 mi SE 13.8 mph 20.7 mph N/A   Overcast
10:15 AM 53.6 °F 46.9 °F 78% 29.92 in 10.0 mi SE 13.8 mph 17.3 mph N/A   Overcast
10:35 AM 54.5 °F 47.5 °F 77% 29.90 in 10.0 mi SE 12.7 mph 21.9 mph N/A   Overcast
10:55 AM 54.5 °F 47.5 °F 77% 29.90 in 10.0 mi SSE 8.1 mph 19.6 mph N/A   Overcast
10:56 AM 54.5 °F 47.5 °F 77% 29.90 in 10.0 mi SE 10.4 mph 19.6 mph N/A   Overcast
11:15 AM 55.2 °F 48.2 °F 77% 29.90 in 10.0 mi SSE 9.2 mph - N/A   Overcast
11:16 AM 55.2 °F 48.2 °F 77% 29.90 in 10.0 mi SSE 8.1 mph - N/A   Overcast
11:35 AM 56.3 °F 48.9 °F 76% 29.90 in 10.0 mi SE 10.4 mph - N/A   Overcast
11:55 AM 57.7 °F 49.8 °F 75% 29.90 in 10.0 mi SSE 11.5 mph 19.6 mph N/A   Overcast
12:15 PM 59.0 °F 50.5 °F 73% 29.90 in 10.0 mi SSE 12.7 mph 18.4 mph N/A   Overcast
12:35 PM 58.8 °F 50.4 °F 73% 29.90 in 10.0 mi SSE 13.8 mph 19.6 mph N/A   Overcast
12:36 PM 58.8 °F 50.4 °F 73% 29.90 in 10.0 mi SE 11.5 mph 19.6 mph N/A   Overcast
12:55 PM 60.6 °F 51.8 °F 73% 29.90 in 10.0 mi SE 11.5 mph 16.1 mph N/A   Overcast
1:15 PM 61.0 °F 52.3 °F 73% 29.90 in 10.0 mi SSE 11.5 mph 16.1 mph N/A   Overcast
1:35 PM 62.6 °F 53.4 °F 72% 29.89 in 10.0 mi SSE 12.7 mph 18.4 mph N/A   Overcast
1:55 PM 64.8 °F 54.7 °F 70% 29.88 in 10.0 mi SSE 13.8 mph 21.9 mph N/A   Overcast
2:15 PM 64.2 °F 54.5 °F 71% 29.88 in 10.0 mi SE 15.0 mph 20.7 mph N/A   Overcast
2:35 PM 66.0 °F 55.0 °F 68% 29.87 in 10.0 mi SSE 15.0 mph 21.9 mph N/A   Scattered Clouds
2:36 PM 65.8 °F 54.7 °F 67% 29.87 in 10.0 mi SE 17.3 mph 21.9 mph N/A   Scattered Clouds
2:55 PM 67.1 °F 55.0 °F 65% 29.87 in 10.0 mi SE 11.5 mph 17.3 mph N/A   Clear
2:56 PM 67.3 °F 55.0 °F 65% 29.87 in 10.0 mi SE 13.8 mph 17.3 mph N/A   Clear
3:15 PM 67.1 °F 54.5 °F 64% 29.86 in 10.0 mi SSE 12.7 mph 19.6 mph N/A   Clear
3:35 PM 69.6 °F 54.9 °F 59% 29.85 in 10.0 mi South 12.7 mph 18.4 mph N/A   Clear
3:55 PM 69.4 °F 55.0 °F 60% 29.85 in 10.0 mi SSE 11.5 mph 20.7 mph N/A   Clear
4:15 PM 71.4 °F 55.6 °F 57% 29.83 in 10.0 mi SSE 11.5 mph 20.7 mph N/A   Clear
4:16 PM 71.6 °F 55.6 °F 57% 29.83 in 10.0 mi SSE 11.5 mph 20.7 mph N/A   Clear
4:35 PM 72.3 °F 55.4 °F 55% 29.83 in 10.0 mi SSE 12.7 mph 18.4 mph N/A   Clear
4:55 PM 72.0 °F 54.9 °F 55% 29.82 in 10.0 mi SSE 12.7 mph 20.7 mph N/A   Clear
5:15 PM 74.3 °F 54.1 °F 49% 29.80 in 10.0 mi SSE 13.8 mph 21.9 mph N/A   Clear
5:16 PM 74.3 °F 54.3 °F 50% 29.80 in 10.0 mi SSE 12.7 mph 21.9 mph N/A   Clear
5:35 PM 75.4 °F 54.9 °F 49% 29.80 in 10.0 mi SSE 13.8 mph 19.6 mph N/A   Clear
5:55 PM 75.6 °F 53.6 °F 46% 29.80 in 10.0 mi SSE 13.8 mph 19.6 mph N/A   Clear
5:56 PM 75.6 °F 53.4 °F 46% 29.80 in 10.0 mi SSE 12.7 mph 19.6 mph N/A   Clear
6:15 PM 76.6 °F 52.3 °F 43% 29.81 in 10.0 mi South 15.0 mph 19.6 mph N/A   Clear
6:35 PM 77.2 °F 52.3 °F 42% 29.79 in 10.0 mi South 13.8 mph 18.4 mph N/A   Clear
6:55 PM 77.0 °F 48.9 °F 37% 29.79 in 10.0 mi South 13.8 mph 27.6 mph N/A   Clear
7:15 PM 76.6 °F 50.7 °F 40% 29.80 in 10.0 mi South 12.7 mph 29.9 mph N/A   Clear
7:16 PM 76.5 °F 50.9 °F 41% 29.80 in 10.0 mi South 15.0 mph 29.9 mph N/A   Clear
7:35 PM 76.8 °F 52.2 °F 42% 29.79 in 10.0 mi South 18.4 mph 24.2 mph N/A   Clear
7:36 PM 77.0 °F 52.3 °F 42% 29.79 in 10.0 mi South 21.9 mph 28.8 mph N/A   Clear
7:55 PM 76.1 °F 52.9 °F 44% 29.79 in 10.0 mi South 19.6 mph 29.9 mph N/A   Clear
8:15 PM 75.6 °F 52.9 °F 45% 29.80 in 10.0 mi South 19.6 mph 29.9 mph N/A   Clear
8:35 PM 75.4 °F 52.7 °F 45% 29.81 in 10.0 mi South 17.3 mph 26.5 mph N/A   Clear
8:55 PM 75.4 °F 52.7 °F 45% 29.80 in 10.0 mi South 19.6 mph 32.2 mph N/A   Clear
8:56 PM 75.4 °F 52.7 °F 45% 29.80 in 10.0 mi South 19.6 mph 28.8 mph N/A   Clear
9:15 PM 75.2 °F 53.1 °F 46% 29.82 in 10.0 mi South 16.1 mph 21.9 mph N/A   Scattered Clouds
9:16 PM 75.2 °F 53.1 °F 46% 29.82 in 10.0 mi South 16.1 mph 21.9 mph N/A   Scattered Clouds
9:35 PM 74.8 °F 53.6 °F 47% 29.81 in 10.0 mi South 17.3 mph 27.6 mph N/A   Scattered Clouds
9:36 PM 74.8 °F 53.6 °F 47% 29.81 in 10.0 mi South 20.7 mph 25.3 mph N/A   Scattered Clouds
9:55 PM 74.5 °F 54.0 °F 49% 29.81 in 10.0 mi South 17.3 mph 25.3 mph N/A   Clear
10:15 PM 74.3 °F 54.5 °F 50% 29.81 in 10.0 mi South 12.7 mph 21.9 mph N/A   Clear
10:35 PM 74.3 °F 53.6 °F 48% 29.82 in 10.0 mi South 24.2 mph 33.4 mph N/A   Scattered Clouds
10:36 PM 74.3 °F 53.6 °F 48% 29.82 in 10.0 mi South 23.0 mph 33.4 mph N/A   Scattered Clouds
10:55 PM 72.0 °F 54.5 °F 54% 29.83 in 10.0 mi South 24.2 mph 39.1 mph N/A   Scattered Clouds
10:56 PM 71.8 °F 54.5 °F 54% 29.83 in 10.0 mi South 23.0 mph 39.1 mph N/A   Scattered Clouds
11:15 PM 71.2 °F 55.9 °F 58% 29.83 in 10.0 mi SSW 18.4 mph 33.4 mph N/A   Mostly Cloudy
11:16 PM 71.1 °F 55.9 °F 59% 29.83 in 10.0 mi South 21.9 mph 33.4 mph N/A   Mostly Cloudy
11:35 PM 68.9 °F 56.7 °F 65% 29.83 in 10.0 mi SSW 19.6 mph 26.5 mph N/A   Scattered Clouds
11:55 PM 69.1 °F 57.9 °F 68% 29.83 in 10.0 mi South 13.8 mph 24.2 mph N/A   Scattered Clouds